Regional Weather Roundup
Issued by NWS

Home | Current Version | Previous Version | Graphics & Text | Print | Product List | Glossary On
Versions: 1 2 3 4 5 6 7 8 9 10 11 12 13 14 15 16 17 18 19 20 21 22 23 24 25 26 27 28 29 30 31 32 33 34 35 36 37 38 39 40 41 42 43 44 45 46 47 48 49 50
000
ASUS43 KIND 270309
RWRIN

WEATHER ROUNDUP FOR INDIANA
NATIONAL WEATHER SERVICE INDIANAPOLIS IN
1100 PM EDT TUE MAY 26 2015

NOTE: "FAIR" INDICATES FEW OR NO CLOUDS BELOW 12,000 FEET WITH NO
SIGNIFICANT WEATHER AND/OR OBSTRUCTIONS TO VISIBILITY.

* - STATION DOES NOT REPORT WEATHER SUCH AS PRECIPITATION OR FOG.

+ - STATION NOT QUALITY CONTROLLED BY THE NATIONAL WEATHER SERVICE.
    USE DATA WITH CAUTION...ESPECIALLY DEWPOINT AND RELATIVE
    HUMIDITY OBSERVATIONS.

INZ001>003-010>013-019-020-270400-
NORTHWEST INDIANA

CITY           SKY/WX    TMP DP  RH WIND       PRES   REMARKS
GARY /AIRPORT/ MOCLDY    72  61  68 S7        29.88R
KNOX *+        PTCLDY    66  59  77 SW10      29.91R
LA PORTE +     PTCLDY    69  62  77 SW13      29.91R
MICHIGAN CITY+ PTCLDY    68  59  73 S8        29.90R
MONTICELLO +   MOCLDY    66  62  87 SW7       29.94R
RENSSELAER +   PTCLDY    66  63  88 S10       29.93R
VALPARAISO     PTCLDY    68  61  78 SW12      29.91R

$$

LMZ046-743>745-270400-
SOUTHERN LAKE MICHIGAN

STATION/POSITION TIME  TEMP    WIND        PRES    WAVE
                       AIR SEA DIR/SP/G            HT
                 (UTC) (F)     (DEG/KT/KT) (MB)    (FT)
BURNS HARBOR     0300   69     200/ 11/ 14 1012.2S
MICHIGAN CITY    0300   69     180/ 15/ 19   N/A
5NW MICH CITY    0300   62 52  220/ 10/ 14   N/A     2

$$

INZ004-005-014>016-021>024-270400-
NORTH CENTRAL INDIANA

CITY           SKY/WX    TMP DP  RH WIND       PRES   REMARKS
GOSHEN         MOCLDY    69  60  73 SW10      29.92R
LOGANSPORT +   CLOUDY    68  55  64 SW8       29.96R
PERU/GRISSOM   CLOUDY    70  61  73 SW10      29.95R
ROCHESTER +    PTCLDY    72  61  68 SW9       29.95R
SOUTH BEND     CLEAR     69  60  73 SW9       29.91R
WARSAW +       CLOUDY    70  59  68 SW10G18   29.93R

$$

INZ006>009-017-018-025>027-270400-
NORTHEAST INDIANA

CITY           SKY/WX    TMP DP  RH WIND       PRES   REMARKS
ANGOLA *+      PTCLDY    72  63  73 W6        29.92R
AUBURN +       MOCLDY    72  64  78 SW5       29.94R
FORT WAYNE     MOCLDY    70  66  87 SW10      29.95R
HUNTINGTON +   CLOUDY    71  59  67 W6        29.95R

$$

INZ028-029-035-036-043>045-051>053-270400-
WEST CENTRAL INDIANA

CITY           SKY/WX    TMP DP  RH WIND       PRES   REMARKS
CRAWFORDSVL +  MOCLDY    67  54  62 S8        29.98R
GREENCASTLE +  PTCLDY    68  54  60 SW3       30.00R
LAFAYETTE      MOCLDY    68  60  75 SW8       29.95R
TERRE HAUTE    CLEAR     70  59  68 S9        29.99R

$$

INZ030>032-037>040-046>048-054>057-064-065-270400-
CENTRAL INDIANA

CITY           SKY/WX    TMP DP  RH WIND       PRES   REMARKS
CP ATTERBURY + MOCLDY    68  61  77 SW6       30.02R
FISHERS *+     PTCLDY    68  61  77 SW7       30.00
FRANKFORT +    MOCLDY    70  59  68 S6        29.98R
GREENWOOD *+   MOCLDY    70  55  60 SW6       30.01R
INDIANAPOLIS   MOCLDY    69  57  65 SW10      29.98R
-EAGLE CREEK   MOCLDY    71  58  63 SW7       29.99R
KOKOMO *+      CLOUDY    72  57  60 SW10      29.96R
MARION +       MOCLDY    69  57  67 SW12      29.98R
MT COMFORT *+  PTCLDY    68  52  56 SW7       30.01R
SHELBYVILLE    MOCLDY    72  65  78 S9        30.00R
ZIONSVILLE +   MOCLDY    70  56  61 S8        29.99R

$$

INZ033-034-041-042-049-050-058-059-270400-
EAST CENTRAL INDIANA

CITY           SKY/WX    TMP DP  RH WIND       PRES   REMARKS
MUNCIE         MOCLDY    72  65  78 SW9G18    29.98R

$$

INZ060-061-067>069-081>083-085>088-270400-
SOUTHWEST INDIANA

CITY           SKY/WX    TMP DP  RH WIND       PRES   REMARKS
EVANSVILLE     CLEAR     69  62  78 SW8       30.05R
HUNTINGBURG *+ PTCLDY    68  61  77 SW8       30.05R
WASHINGTON +   PTCLDY    70  57  63 SW8       30.02R

$$

INZ062-063-066-070>080-084-089>092-270400-
SOUTH CENTRAL AND SOUTHEAST INDIANA

CITY           SKY/WX    TMP DP  RH WIND       PRES   REMARKS
BLOOMINGTON    PTCLDY    69  59  70 SW7       30.02R
MADISON *+     CLOUDY    68  64  88 S8        30.07R
NORTH VERNON + MOCLDY    68  68 100 S9        30.04R
SEYMOUR +      FAIR      70  66  88 S6        30.03R

$$




USA.gov is the U.S. government's official web portal to all federal, state and local government web resources and services.